Current weather by "City, St" or "zip code"  
 
Advertise Here

Current Conditions: Cocoa - Patrick Air Force Base, FL

Overcast


56.0 F

Last Updated on Jan 18 2021, 4:56 am EST
Humidity: 61%
Wind Speed: W 8.1 mph
Barometer 30.09 in
Dewpoint: 43.0 F
Visibility: 10.00 mi
Precip: --
Heat Index: NA
Wind Chill: 54 F
Current conditions at:

Cocoa - Patrick Air Force Base, FL (KCOF)

Lat: 28.24219 Lon: 80.60799

Local Radar Image active severe weather and emergency alerts image image weather storm and storm spotter reports image weather observation monitoring service image
Local
Radar
Active
Alerts
Storm Reports Obs
Monitoring

Sign-up For Email & Text Message Weather Alert Notification Services


Advertise Here

Observation History for Cocoa - Patrick Air Force Base, FL


Time Wind
(mph)
Vis
(mi)
Weather Precip (in) Temperature (F) Relative
Humidity
Wind
Chill
(F)
Heat
Index
(F)
Pressure
Air Dwpt altimeter
(in)
sea level
(mb)
Rmks
4:56 am EST W 8.1 10.00 Overcast -- 56.0 43.0 61% 54 NA 30.09 1019.4
3:56 am EST NW 8.1 10.00 Overcast -- 56.0 43.2 61% 54 NA 30.08 1019.1
2:56 am EST NW 6.9 10.00 Mostly Cloudy -- 56.0 43.5 62% 54 NA 30.07 1018.7
1:56 am EST NW 5.8 10.00 Overcast -- 56.0 46.2 70% 55 NA 30.06 1018.4
12:56 am EST W 5.8 10.00 A Few Clouds -- 56.0 46.8 72% 55 NA 30.06 1018.4
11:56 pm EST W 5.8 10.00 Fair -- 56.0 46.6 70% 55 NA 30.06 1018.4
10:56 pm EST SW 6.9 10.00 Fair -- 57.0 47.1 69% 56 NA 30.06 1018.4
9:56 pm EST SW 5.8 10.00 A Few Clouds -- 58.0 45.9 65% 57 NA 30.06 1018.4
8:56 pm EST SW 4.6 10.00 Fair -- 58.0 45.3 62% 58 NA 30.04 1017.7
7:56 pm EST SW 4.6 10.00 Partly Cloudy -- 59.0 45.0 60% 59 NA 30.05 1018.0
6:56 pm EST W 6.9 10.00 Mostly Cloudy -- 60.0 44.4 57% 59 NA 30.06 1018.4
5:56 pm EST W 10.4 10.00 Mostly Cloudy -- 60.0 43.7 55% 58 NA 30.04 1017.7
4:56 pm EST W 10.4 10.00 A Few Clouds -- 61.0 43.3 53% 60 NA 30.02 1017.0
3:56 pm EST SE 3.5 10.00 Partly Cloudy -- 60.0 44.6 57% NA NA 30.02 1017.0
2:56 pm EST N 0.0 10.00 A Few Clouds -- 60.0 43.7 55% NA NA 30.02 1017.0
1:56 pm EST E 4.6 10.00 A Few Clouds -- 60.0 42.8 54% 60 NA 30.02 1017.0
12:56 pm EST NW 4.6 10.00 A Few Clouds -- 61.0 42.8 51% 61 NA 30.04 1017.7
11:56 am EST NW 6.9 10.00 Fair -- 58.0 41.4 53% 57 NA 30.07 1018.7
10:56 am EST E 4.6 10.00 Fair -- 58.0 41.9 55% 58 NA 30.09 1019.4
9:56 am EST N 0.0 10.00 Fair -- 57.0 41.0 55% NA NA 30.09 1019.4
8:56 am EST N 3.5 10.00 Fair -- 55.0 40.8 60% NA NA 30.08 1019.1
7:56 am EST N 0.0 NULL Fair -- 51.0 37.6 61% NA NA 30.07 1018.7
6:56 am EST N 4.6 NULL Fair -- 49.0 36.9 63% 47 NA 30.05 1018.0
5:56 am EST N 5.8 NULL Fair -- 47.0 37.4 69% 44 NA 30.02 1017.0

Regional Weather Observation


Titusville, NASA Shuttle Landing Facility, FL (KTTS)

Fair
50.0 F

Cocoa Beach, Cape Canaveral Air Force Station Skid Strip, FL (KXMR)

Overcast with Haze
55.0 F

Cocoa - Patrick Air Force Base, FL (KCOF)

Overcast
56.0 F

Melbourne International Airport, FL (KMLB)

Overcast
55.0 F

Orlando / Sanford Airport, FL (KSFB)

Fair
47.0 F

Orlando International Airport, FL (KMCO)

Partly Cloudy
49.0 F